Starlink 34053

operational
NORAD ID: 63837 Int'l Des: 2025-093 Owner: SPXS Country: US Constellation: starlink
LEOCIRCULAR

Über Starlink 34053

Beschreibung wird geladen...

Live-Position

3D-Globus wird geladen...

Nächste Überflüge

Höhenverlauf

Altitude vs Time

uPlot chart will show altitude changes over time

Zweizeiliger Elementsatz

1 63837U 25093B 25340.92292816 .00034132 00000-0 12435-2 0 9999
2 63837 43.0015 241.8983 0001389 284.0460 76.0237 15.27596595 33726
Epoch: 6. Dez. 2025 • Age: 20 hours

Aktueller Status

Höhe 492.2 km
Geschwindigkeit 7.62 km/s
Subsatellitenpunkt -34.80°S, 118.12°E
Startdatum 7. Mai 2025
Alter 0.5 years
Typ internet

Technische Details

Klassifizierung Payload
Masse 575.00 kg
Trockenmasse 530.00 kg
Gesamtmasse 575.00 kg
Länge 0.30 m
Durchmesser 4.10 m
Spannweite 29.00 m
Form Box + pan
Hersteller SPXS
Bus-Typ Starlink V2MO
Phasenstatus In Orbit
Besitzer/Staat SPXS/US

Große Konstellationen

Loading constellations...